SCATSAT 1

Last updated on Wed Jul 09 2025 00:02:29 GMT+0000 (Coordinated Universal Time)

1 41790U 16059H 25189.38160444 .00000814 00000+0 11724-3 0 9997 2 41790 98.1679 243.9424 0054556 274.7745 84.7237 14.78277528 50773
UTC large
Height (km)
Speed (km/s)
/
Latitude / Longitude
Inclination (degrees)
Orbital Period (minutes)
Azimuth
Elevation
Range (km)
Doppler Factor

Next 0 passes for location: London (51.5072 / 0.1276)

Sorry there are no passes over London.